[[{"header":{"parameterUnit":"m.s-1","parameterCategory":1,"la1":30.2991,"la2":30.254,"lo1":-89.0895,"lo2":-89.0444,"dy":0.0017,"dx":0.0017,"nx":28,"ny":28,"refTime":"2025-06-03T09:00:00:Z","depth":0,"parameterNumber":2,"parameterNumberName":"U-component_of_WINDS"},"data":[0,0,0,0,0,0,0,0,0,0,0,0,0,0,0,0,0,0,0,0,0,0,0,0,0,0,0,0,0,0,0,0,0,0,0,0,0,0,0,0,0,0,0,0,0,0,0,0,0,0,0,0,0,0,0,0,0,0,-5.8504,-5.8505,0,-5.8633,-5.8635,-5.8636,-5.8591,-5.8588,-5.8585,-5.8583,-5.8713,-5.8719,-5.8725,0,0,0,0,0,0,0,0,0,0,0,0,0,-5.8214,-5.822,-5.8504,-5.8505,-5.8507,-5.8633,-5.8635,-5.8637,-5.8591,-5.8588,-5.8584,-5.8581,-5.8711,-5.8718,-5.8726,0,0,0,0,0,0,0,0,0,0,0,0,0,-5.8341,-5.8222,-5.8503,-5.85,-5.8501,-5.8633,-5.8635,-5.8637,-5.8592,-5.8588,-5.8584,-5.858,-5.8709,-5.8718,-5.8727,-5.887,0,0,-5.8755,-5.8759,0,0,0,0,0,0,0,0,-5.8334,-5.8352,-5.8499,-5.85,-5.8501,-5.8592,-5.8581,-5.8715,-5.8593,-5.8557,-5.8582,-5.8577,-5.8676,-5.8688,-5.8721,-5.8876,-5.8881,-5.8756,-5.8761,-5.8765,-5.8768,0,0,0,0,0,0,0,-5.8326,-5.8346,-5.8555,-5.8501,-5.8503,-5.8491,-5.8504,-5.8606,-5.8639,-5.856,-5.8557,-5.8573,-5.8676,-5.8713,-5.8724,-5.8883,-5.8756,-5.8764,-5.8769,-5.8773,-5.9159,-5.9164,0,0,0,0,0,0,-5.8316,-5.8339,-5.8551,-5.8559,-5.8406,-5.8499,-5.8514,-5.8567,-5.8638,-5.8645,-5.8577,-5.8571,-5.8699,-5.8713,-5.8729,-5.8898,-5.8765,-5.8774,-5.8779,-5.9154,-5.916,-5.9165,0,0,0,0,0,0,-5.831,-5.8336,-5.8545,-5.8448,-5.8474,-5.8509,-5.8568,-5.8572,-5.8608,-5.8651,-5.8656,-5.8608,-5.8696,-5.8716,-5.8835,-5.8902,-5.8778,-5.8786,-5.9149,-5.9156,-5.9163,-5.9239,0,0,0,0,0,0,-5.8302,-5.8334,-5.8389,-5.845,-5.848,-5.865,-5.8573,-5.8577,-5.8625,-5.8618,-5.8681,-5.8688,-5.8694,-5.8821,-5.8844,-5.8912,-5.8794,-5.9143,-5.9152,-5.916,-5.9231,-5.9248,-5.9263,0,0,0,0,0,-5.8292,-5.8406,-5.8392,-5.8418,-5.8549,-5.8654,-5.8671,-5.8677,-5.863,-5.8685,-5.8712,-5.8686,-5.8892,-5.8834,-5.8859,-5.8931,-5.9139,-5.9149,-5.916,-5.9224,-5.9245,-5.9263,0,0,0,0,0,0,-5.8351,-5.8414,-5.8399,-5.8536,-5.859,-5.8646,-5.8716,-5.8699,-5.8767,-5.8758,-5.8762,-5.8776,-5.8898,-5.8927,-5.8861,-5.9072,-5.9008,-5.9024,-5.9048,-5.9068,-5.9084,-5.9073,-5.8801,0,0,0,0,0,-5.838,-5.8461,-5.8511,-5.8627,-5.8655,-5.8681,-5.8727,-5.8727,-5.8783,-5.8805,-5.8841,-5.8896,-5.8972,-5.9023,-5.9096,-5.9236,-5.9248,-5.9298,-5.9314,-5.9327,-5.934,-5.9414,-5.9436,-5.92,-5.92,-5.92,0,0,-5.8441,-5.8485,-5.8536,-5.864,-5.8682,-5.8764,-5.8701,-5.8791,-5.8851,-5.8819,-5.8932,-5.8961,-5.9022,-5.9152,-5.921,-5.9179,-5.9408,-5.9341,-5.9351,-5.9357,-5.9427,-5.9449,-5.9469,-5.9207,-5.9206,-5.9205,0,0,-5.8592,-5.8635,-5.8735,-5.8778,-5.8843,-5.8859,-5.8884,-5.8943,-5.896,-5.9075,-5.9052,-5.9124,-5.9257,-5.93,-5.934,-5.9508,-5.9485,-5.9532,-5.9614,-5.9686,-5.9705,-5.9721,-5.9778,-5.9798,-5.9546,-5.9546,-5.9546,0,-5.8659,-5.8782,-5.8788,-5.888,-5.8925,-5.8901,-5.9001,-5.9043,-5.9128,-5.9159,-5.9124,-5.9289,-5.9329,-5.9467,-5.9507,-5.9542,-5.9567,-5.9523,-5.9702,-5.9718,-5.9734,-5.9788,-5.9809,-5.9551,-5.955,-5.955,-5.9549,0,-5.8859,-5.8945,-5.9018,-5.91,-5.9155,-5.925,-5.9269,-5.9324,-5.9319,-5.9339,-5.9455,-5.9502,-5.9583,-5.9617,-5.9614,-5.9755,-5.9733,-5.97,-5.9635,-5.9761,-5.9811,-5.9833,-5.9558,-5.9556,-5.9555,-5.9553,0,0,-5.9049,-5.9134,-5.916,-5.9196,-5.9266,-5.9332,-5.9426,-5.9506,-5.955,-5.9611,-5.9687,-5.9801,-5.977,-5.9815,-5.9817,-5.9881,-6.0007,-5.984,-5.9841,-5.9866,-6.0161,-6.0182,-6.0207,-5.9994,-5.9998,-6.0001,-6.0155,0,-5.9203,-5.9368,-5.9376,-5.9525,-5.9603,-5.9582,-5.9663,-5.9714,-5.9736,-5.9804,-5.9828,-5.9907,-5.9863,-5.9889,-5.9952,-5.9978,-6.0066,-5.9968,-6.0063,-6.0066,-6.0044,-6.0234,-6.0257,-6.0399,-6.0175,-6.0179,-6.0181,0,-5.9404,-5.947,-5.9627,-5.9683,-5.9716,-5.979,-5.9862,-5.9929,-5.9986,-5.9997,-6.0048,-6.004,-6.0135,-6.007,-6.0199,-6.0132,-6.0172,-6.0191,-6.0197,-6.0203,-6.0128,-6.0241,-6.0445,-6.0465,-6.0213,-6.021,-6.0208,0,-5.9522,-5.965,-5.976,-5.9792,-5.9862,-5.9913,-5.9945,-5.9998,-6.0045,-6.0109,-6.0139,-6.0213,-6.0253,-6.0311,-6.0323,-6.0275,-6.0451,-6.0388,-6.0461,-6.046,-6.0495,-6.0492,-6.0705,-6.0528,-6.0528,-6.0527,-6.0527,0,-5.9691,-5.9786,-5.9813,-5.988,-5.9987,-5.9996,-6.01,-6.0128,-6.0176,-6.0246,-6.0234,-6.0301,-6.0315,-6.0384,-6.0395,-6.0499,-6.0518,-6.0528,-6.0529,-6.0527,-6.0525,-6.055,-6.0539,-6.0533,-6.0532,-6.0531,-6.053,0,-5.9838,-5.9861,-5.9978,-6.0035,-6.0052,-6.0127,-6.0175,-6.0239,-6.026,-6.035,-6.0371,-6.0404,-6.0485,-6.0504,-6.0601,-6.0608,-6.0729,-6.0723,-6.0709,-6.0708,-6.0778,-6.077,-6.1011,-6.1042,-6.0849,-6.085,-6.0852,0,-5.9943,-6.0016,-6.0081,-6.0127,-6.0161,-6.0237,-6.0285,-6.0297,-6.0347,-6.0417,-6.0471,-6.0551,-6.0615,-6.0746,-6.0777,-6.0851,-6.0843,-6.0923,-6.0854,-6.0849,-6.084,-6.0834,-6.0839,-6.0935,-6.0937,-6.0938,-6.094,0,-6.0124,-6.0131,-6.0201,-6.0274,-6.0331,-6.039,-6.0445,-6.0484,-6.0504,-6.056,-6.0643,-6.0693,-6.0792,-6.087,-6.0944,-6.0975,-6.096,-6.0962,-6.0982,-6.0978,-6.0966,-6.097,-6.0741,-6.0955,-6.0954,-6.0953,-6.0952,-6.0951,-6.025,-6.0313,-6.0368,-6.0445,-6.0489,-6.0541,-6.0603,-6.0631,-6.0701,-6.0781,-6.0785,-6.0874,-6.0928,-6.1026,-6.1062,-6.1131,-6.1107,-6.1137,-6.1144,-6.115,-6.1154,-6.0959,-6.1146,-6.1145,-6.1145,-6.1145,-6.1144,0,-6.0427,-6.0462,-6.0533,-6.0611,-6.0671,-6.0654,-6.0714,-6.0766,-6.0844,-6.0897,-6.096,-6.1054,-6.113,-6.1168,-6.1243,-6.1291,-6.1286,-6.131,-6.1305,-6.1311,-6.1174,-6.1147,-6.1313,-6.1313,-6.1313,-6.1313,-6.1313,-6.1313,-6.0526,-6.0631,-6.0645,-6.077,-6.0804,-6.0891,-6.0926,-6.0974,-6.1015,-6.1121,-6.1184,-6.1209,-6.1255,-6.1333,-6.1401,-6.1411,-6.1437,-6.1464,-6.1469,-6.1339,-6.1322,-6.1305,-6.128,-6.1471,-6.1471,-6.16,-6.1602,-6.1602]},{"header":{"parameterUnit":"m.s-1","parameterCategory":1,"la1":30.2991,"la2":30.254,"lo1":-89.0895,"lo2":-89.0444,"dy":0.0017,"dx":0.0017,"nx":28,"ny":28,"refTime":"2025-06-03T09:00:00:Z","depth":0,"parameterNumber":3,"parameterNumberName":"V-component_of_WINDS"},"data":[0,0,0,0,0,0,0,0,0,0,0,0,0,0,0,0,0,0,0,0,0,0,0,0,0,0,0,0,0,0,0,0,0,0,0,0,0,0,0,0,0,0,0,0,0,0,0,0,0,0,0,0,0,0,0,0,0,0,1.3435,1.3435,0,1.3461,1.3461,1.3462,1.3416,1.3414,1.3413,1.3411,1.344,1.3442,1.3444,0,0,0,0,0,0,0,0,0,0,0,0,0,1.3347,1.3349,1.3435,1.3435,1.3435,1.3461,1.3461,1.3462,1.3416,1.3414,1.3412,1.3411,1.3439,1.3442,1.3445,0,0,0,0,0,0,0,0,0,0,0,0,0,1.338,1.3349,1.3434,1.3415,1.3414,1.3461,1.3461,1.3462,1.3416,1.3414,1.3412,1.341,1.3438,1.3442,1.3445,1.3512,0,0,1.3455,1.3456,0,0,0,0,0,0,0,0,1.3378,1.3384,1.3418,1.3417,1.3415,1.3433,1.3441,1.3479,1.3417,1.3416,1.3411,1.3408,1.344,1.3443,1.3453,1.3513,1.3515,1.3455,1.3457,1.3459,1.346,0,0,0,0,0,0,0,1.3376,1.3382,1.3445,1.3419,1.3417,1.3406,1.3409,1.3448,1.344,1.3416,1.3412,1.3416,1.3438,1.345,1.3453,1.3515,1.3455,1.3458,1.346,1.3462,1.3633,1.3636,0,0,0,0,0,0,1.3376,1.3381,1.3444,1.3446,1.3391,1.341,1.3412,1.343,1.344,1.3439,1.3418,1.3414,1.3445,1.3449,1.3454,1.3534,1.3459,1.3462,1.3464,1.3631,1.3634,1.3637,0,0,0,0,0,0,1.3374,1.3382,1.3443,1.3412,1.3419,1.3414,1.3434,1.3431,1.3442,1.3442,1.344,1.3431,1.3443,1.3449,1.3498,1.3534,1.3463,1.3466,1.3628,1.3632,1.3635,1.3694,0,0,0,0,0,0,1.3372,1.3382,1.3407,1.3413,1.3421,1.3486,1.3436,1.3433,1.3448,1.3443,1.3453,1.3453,1.3442,1.3493,1.3501,1.3538,1.3469,1.3624,1.3629,1.3634,1.3689,1.37,1.3709,0,0,0,0,0,1.3369,1.3422,1.3408,1.3416,1.3452,1.3488,1.3493,1.3479,1.3451,1.3477,1.3476,1.3452,1.3529,1.3499,1.3507,1.3545,1.3622,1.3628,1.3634,1.3685,1.3697,1.3708,0,0,0,0,0,0,1.342,1.3423,1.3407,1.3464,1.3476,1.3481,1.3512,1.3493,1.3514,1.3509,1.3491,1.3494,1.3547,1.3551,1.3517,1.3611,1.3571,1.3579,1.3607,1.3619,1.3629,1.3627,1.3472,0,0,0,0,0,1.3438,1.3467,1.3468,1.3518,1.3525,1.3518,1.3533,1.3521,1.3534,1.3539,1.3542,1.3556,1.3583,1.3601,1.3626,1.3689,1.3692,1.372,1.3729,1.3738,1.3745,1.378,1.3792,1.3656,1.3656,1.3655,0,0,1.3476,1.348,1.35,1.3528,1.3537,1.3568,1.3522,1.3557,1.358,1.3544,1.3591,1.3594,1.3608,1.3664,1.3689,1.3669,1.3783,1.3745,1.3751,1.3754,1.3787,1.38,1.3811,1.366,1.3659,1.3658,0,0,1.356,1.3566,1.3609,1.3618,1.3631,1.3626,1.3636,1.3644,1.3644,1.369,1.3665,1.3692,1.3739,1.375,1.3762,1.3852,1.3831,1.3861,1.3912,1.3946,1.3957,1.3967,1.4,1.4011,1.3868,1.3868,1.3868,0,1.3605,1.365,1.3633,1.367,1.3684,1.3653,1.3697,1.3706,1.3727,1.3738,1.3715,1.3774,1.3781,1.384,1.3862,1.3873,1.3885,1.3859,1.3957,1.3966,1.3975,1.4006,1.4018,1.3871,1.3871,1.387,1.387,0,1.3705,1.3737,1.377,1.379,1.3808,1.3848,1.3839,1.3859,1.3846,1.3844,1.3892,1.3899,1.3926,1.3939,1.3927,1.3997,1.3984,1.3959,1.3919,1.3992,1.4021,1.4032,1.3876,1.3875,1.3874,1.3873,0,0,1.3822,1.3833,1.3846,1.3855,1.3867,1.3892,1.3931,1.3957,1.3975,1.399,1.4024,1.4064,1.4042,1.4055,1.4044,1.4074,1.4146,1.4046,1.4046,1.4065,1.4225,1.4244,1.4258,1.4132,1.4134,1.4136,1.4224,0,1.3906,1.3973,1.396,1.4025,1.4055,1.4027,1.4061,1.4073,1.4072,1.4098,1.4097,1.4127,1.4094,1.4102,1.4131,1.4131,1.4178,1.4125,1.4164,1.4165,1.4162,1.4273,1.4293,1.4376,1.4236,1.4237,1.4239,0,1.4013,1.4032,1.4101,1.411,1.4122,1.4153,1.4175,1.42,1.4214,1.4211,1.4227,1.421,1.425,1.4209,1.4264,1.4228,1.4244,1.4247,1.425,1.4253,1.4207,1.4281,1.4402,1.4415,1.4256,1.4255,1.4254,0,1.4092,1.4136,1.4183,1.4191,1.4202,1.4225,1.4231,1.4242,1.4258,1.4278,1.4289,1.4314,1.4328,1.4348,1.4339,1.4309,1.4397,1.4354,1.4397,1.4397,1.4417,1.4416,1.4543,1.4426,1.4425,1.4425,1.4425,0,1.4188,1.4231,1.4219,1.4248,1.4296,1.4281,1.4329,1.4332,1.4342,1.4372,1.4348,1.4377,1.4363,1.4391,1.4384,1.4432,1.4438,1.4438,1.4436,1.4441,1.4441,1.4451,1.4445,1.4428,1.4428,1.4427,1.4427,0,1.4285,1.4278,1.4327,1.4334,1.4336,1.4372,1.4378,1.4405,1.4403,1.4441,1.4449,1.4446,1.4477,1.447,1.4505,1.4501,1.4561,1.4551,1.4556,1.4554,1.4597,1.4594,1.4736,1.4755,1.4625,1.4626,1.4627,0,1.4347,1.4379,1.4389,1.4407,1.4415,1.4444,1.4461,1.4448,1.4466,1.4484,1.451,1.454,1.4563,1.4615,1.4616,1.4643,1.4634,1.4682,1.4638,1.4642,1.4636,1.4634,1.4638,1.4691,1.4693,1.4694,1.4695,0,1.4457,1.4453,1.4477,1.4501,1.4522,1.454,1.4556,1.4572,1.4561,1.4583,1.4615,1.4633,1.4668,1.4698,1.4723,1.473,1.4711,1.4709,1.472,1.4726,1.4728,1.4728,1.4581,1.4706,1.4705,1.4704,1.4703,1.4703,1.4539,1.4567,1.4579,1.4608,1.4618,1.4634,1.4661,1.4662,1.4688,1.4716,1.4706,1.4743,1.4757,1.4788,1.4798,1.4827,1.4809,1.4826,1.483,1.4834,1.484,1.4722,1.4832,1.4831,1.4831,1.4831,1.4831,0,1.465,1.4656,1.4682,1.4705,1.4728,1.4708,1.4725,1.4746,1.4778,1.4792,1.4815,1.4853,1.4882,1.4885,1.4913,1.4936,1.4928,1.4944,1.4943,1.4945,1.4854,1.4842,1.495,1.495,1.495,1.495,1.495,1.495,1.471,1.4757,1.4753,1.4806,1.4812,1.4847,1.4859,1.4874,1.4885,1.4927,1.4952,1.4953,1.4964,1.4992,1.5019,1.5019,1.5031,1.505,1.5047,1.4963,1.4951,1.494,1.4928,1.5053,1.5053,1.5136,1.5136,1.5137]}]]